Regional Weather Roundup
Issued by NWS

Home | Current Version | Previous Version | Text Only | Print | Product List | Glossary On
Versions: 1 2 3 4 5 6 7 8 9 10 11 12 13 14 15 16 17 18 19 20 21 22 23 24 25 26 27 28 29 30 31 32 33 34 35 36 37 38 39 40 41 42 43 44 45 46 47 48 49 50
553
ASUS44 KFWD 280115
RWRTX
NORTH TEXAS HOURLY WEATHER ROUNDUP
NATIONAL WEATHER SERVICE FORT WORTH TX
800 PM CDT WED JUL 27 2016

NOTE: "FAIR" INDICATES FEW OR NO CLOUDS BELOW 12,000 FEET WITH NO
SIGNIFICANT WEATHER AND/OR OBSTRUCTIONS TO VISIBILITY.

TXZ118-119-280200-
DALLAS/FORT WORTH METROPLEX

CITY           SKY/WX    TMP DP  RH WIND       PRES   REMARKS
DFW AIRPORT    MOCLDY    87  72  60 E5        29.87F HX  93
DALLAS LOVE    MOCLDY    86  77  74 E5        29.87F HX  97
FTW MEACHAM    CLOUDY    88  70  55 CALM      29.87F HX  93
FTW-ALLIANCE   MOCLDY    86  72  62 SE5       29.87F HX  92
FTW-NAS-JRB    MOCLDY    85  72  65 CALM      29.88F HX  91
FTW-SPINKS     CLOUDY    82  73  74 CALM      29.90S
ARLINGTON      CLOUDY    86  71  60 E6        29.88S HX  91
GRAND PRAIRIE  PTCLDY    86  70  58 E6        29.89S HX  90
ADDISON        PTCLDY    82  79  89 E6        29.89F HX  93
MESQUITE       PTCLDY    84  73  70 CALM      29.89R HX  91
LANCASTER      CLOUDY    86  75  69 S5        29.89S HX  95
$$

TXZ091>094-102>105-117-120-121-131>134-280200-
NORTH CENTRAL TEXAS

CITY           SKY/WX    TMP DP  RH WIND       PRES   REMARKS
SHRMAN/DENISON PTCLDY    85  74  68 CALM      29.90S HX  92
GAINESVILLE    MOCLDY    80  74  83 CALM      29.92R
BOWIE          MOCLDY    84  72  67 SE3       29.90S
BRIDGEPORT     CLOUDY    82  73  74 E5        29.91F
DECATUR        CLOUDY    81  69  67 SE3       29.91S
DENTON         MOCLDY    80  77  90 W3        29.88S
MCKINNEY       PTCLDY    81  76  84 SE3       29.89S
GREENVILLE     PTCLDY    82  70  65 E17       29.90R
ROCKWALL       PTCLDY    84  74  71 NW7       29.87F HX  91
TERRELL        CLOUDY    88  72  58 S6        29.89R HX  94
WAXAHACHIE     PTCLDY    80  75  85 CALM      29.91R
CLEBURNE       PTCLDY    84  75  74 SE7       29.91S HX  92
GRANBURY       CLOUDY    85  71  63 E3        29.90R HX  90
$$

TXZ083>090-098>101-113>116-127>130-139>142-154-155-280200-
WESTERN NORTH TEXAS

CITY           SKY/WX    TMP DP  RH WIND       PRES   REMARKS
WICHITA FALLS  CLEAR     89  71  55 SE15      29.87R HX  95
WF-KICKAPOO    CLEAR     91  69  47 S14       29.89R HX  96
VERNON         PTCLDY    95  60  31 E10       29.88S HX  94
ABILENE        PTCLDY    90  67  46 SE10      29.91S HX  93
ABILENE-DYESS  CLEAR     92  66  41 E10       29.89S HX  94
CISCO          CLOUDY    82  72  69 SE16G23   29.93F
BRECKENRIDGE   MOCLDY    85  67  56 SE13      29.90S
GRAHAM         PTCLDY    86  73  63 SE5       29.88R HX  93
MINERAL WELLS  PTCLDY    82  74  76 S7        29.88F
STEPHENVILLE   CLOUDY    76  71  84 S7        29.97R
COMANCHE       TSTM      76  72  86 SE14G20   29.95R
BROWNWOOD      PTCLDY    81  70  69 SE7       29.94R
COLEMAN        TSTM      75  72  89 S14G22    29.95F
$$

TXZ143>147-156>162-174-175-280200-
CENTRAL TEXAS

CITY           SKY/WX    TMP DP  RH WIND       PRES   REMARKS
WACO           PTCLDY    83  71  67 S12       29.90R
WACO-TSTC      PTCLDY    84  72  65 S9        29.90
WACO-MCGREGOR  CLOUDY    79  72  79 S15G26    29.91R
HILLSBORO      CLOUDY    84  71  65 S12       29.90R
CORSICANA      CLEAR     86  73  65 S8        29.91R HX  93
MEXIA          PTCLDY    83  73  70 S13G18    29.91R
HEARNE         PTCLDY    84  73  68 S6        29.93R HX  90
CAMERON        CLEAR     81  70  70 SW8       29.92F
TEMPLE         PTCLDY    89  71  55 S18G28    29.91R THUNDER HX  95
KILLEEN        PTCLDY    82  71  68 S7        29.90F
KILLEEN-SKYLRK CLEAR     85  71  63 S10       29.91F HX  90
FORT HOOD      CLEAR     83  71  67 S7        29.89S
GATESVILLE     CLOUDY    82  70  65 SW9       29.93S
HAMILTON       CLOUDY    81  68  64 SW9       29.95R
LAMPASAS       PTCLDY    77  74  92 SW3       29.91F
$$

TXZ095>097-106>112-122>126-135>138-148>153-164>167-280200-
EAST TEXAS

CITY           SKY/WX    TMP DP  RH WIND       PRES   REMARKS
PARIS          CLOUDY    75  64  69 SE12      29.92R
SULPHUR SPRNGS CLOUDY    78  73  87 E10       29.93S
MOUNT PLEASANT CLOUDY    75  74  98 SE3       29.94S
GILMER         CLOUDY    71  70  96 SE6       29.89F
MINEOLA        CLOUDY    79  75  89 SE8       29.93R THUNDER
TYLER          MOCLDY    80  69  69 E13       29.94R
LONGVIEW       CLOUDY    73  71  93 W12       29.95R THUNDER
MARSHALL       CLOUDY    75  70  83 W3        29.94F
ATHENS         CLEAR     84  72  65 S5        29.91R
PALESTINE      CLEAR     85  75  71 S7        29.93R HX  94
JACKSONVILLE   CLEAR     85  72  64 S3        29.97R HX  90
HENDERSON      CLOUDY    82  70  66 N16       29.96R
CENTER         PTCLDY    83  76  80 SW5       29.96R HX  91
NACOGDOCHES    PTCLDY   N/A N/A N/A SW5       29.93R
LUFKIN         CLEAR     82  74  76 S5        29.95R
$$

SUPPLEMENTAL OBSERVATIONS (CENTRAL)

CITY           SKY/WX    TMP DP  RH WIND       PRES   REMARKS
DENISON DAM      N/A     84  73  70 SW2         N/A  HX  91
CADDO GRASSLND   N/A     84  70  61 S5          N/A
PAT MAYSE LAKE   N/A     79  72  78 E12         N/A
GREENVILLE       N/A     79  70  73 SE8G16      N/A
CEDAR HILL       N/A     82  75  78 SE6         N/A
ATHENS           N/A     86  73  66 S7G15       N/A  HX  93
MCGREGOR         N/A     75  72  88 S6G31       N/A
TEMPLE           N/A     84  68  58 S16G33      N/A
$$

SUPPLEMENTAL OBSERVATIONS (WEST)

CITY           SKY/WX    TMP DP  RH WIND       PRES   REMARKS
MILLERS CREEK    N/A     88  66  48 SE13G22     N/A  HX  90
POSSUM KINGDOM   N/A     84  70  61 SE8         N/A
LBJ GRASSLAND    N/A     81  73  78 S2          N/A
GRANBURY         N/A     84  70  61 NE5         N/A
HAMBY            N/A     90  66  45 SE7         N/A  HX  92
IVIE RESERVOIR   N/A     84  68  58 SE6G25      N/A
COLORADO BEND    N/A     75  72  88 SW6         N/A
$$

SUPPLEMENTAL OBSERVATIONS (EAST)

CITY           SKY/WX    TMP DP  RH WIND       PRES   REMARKS
CLARKSVILLE      N/A     73  72  94 S8          N/A
TEXARKANA        N/A     75  72  88 CALM        N/A
LINDEN           N/A     73  70  88 NW2         N/A
CADDO LAKE       N/A     73  68  83 CALM        N/A
GILMER           N/A     72  70  94 S5          N/A
HENDERSON        N/A     81  70  69 N13         N/A
LUFKIN           N/A     82  77  83 MISG        N/A  HX  91
N SABINE NF      N/A     82  73  74 MISG        N/A
S SABINE NF      N/A     79  73  83 W2          N/A
$$

SUPPLEMENTAL OBSERVATIONS ARE A COLLECTION OF AUTOMATED INSTRUMENTS
THAT ARE MAINTAINED BY A VARIETY OF FEDERAL AND STATE AGENCIES.
CERTAIN ELEMENTS...SUCH AS HUMIDITY VALUES AND SUSTAINED WIND
SPEEDS...MAY BE APPROXIMATED.





USA.gov is the U.S. government's official web portal to all federal, state and local government web resources and services.